Weather History for Newark Heath, OH

Change the Weather History Date:

Sunday, March 24, 2013

  Actual Average Record
Temperature  
Mean Temperature 34 °F -  
Max Temperature 37 °F 52 °F 80 °F (1939)
Min Temperature 30 °F 30 °F 9 °F (1940)
Degree Days  
Heating Degree Days 32    
Moisture  
Dew Point 25 °F    
Average Humidity 71    
Maximum Humidity 96    
Minimum Humidity 48    
Precipitation  
Precipitation 0.11 in - - ()
Sea Level Pressure  
Sea Level Pressure 29.66 in    
Wind  
Wind Speed 7 mph (ENE)    
Max Wind Speed 17 mph    
Max Gust Speed 25 mph    
Visibility 8 miles    
Events Fog , Snow    
Averages and records for this station are not official NWS values.
T = Trace of Precipitation, MM = Missing Value Source: NWS Daily Summary

Daily Weather History Graph

Daily Weather History Graph

Search for Another Location

Airport:

Trip Planner

Search our weather history database for the weather conditions in past years. The results will help you decide how hot, cold, wet, or windy it might be!

Date:

Astronomy

Mar. 24, 2013 Rise Set
Actual Time 7:26 AM EDT 7:46 PM EDT
Civil Twilight 6:59 AM EDT 8:13 PM EDT
Nautical Twilight 6:27 AM EDT 8:45 PM EDT
Astronomical Twilight 5:55 AM EDT 9:17 PM EDT
Moon 5:13 PM EDT (3/24) 5:36 AM EDT (3/24)
Length of Visible Light 13h 14m
Length of Day
12h 19m
Waxing Gibbous, 91% of the Moon is Illuminated
Mar 24
Waxing Gibbous
Mar 27
Full
Apr 3
Last Quarter
Apr 10
New
Apr 18
First Quarter

Hourly Weather History & Observations

Time (EDT) Temp. Windchill Dew Point Humidity Pressure Visibility Wind Dir Wind Speed Gust Speed Precip Events Conditions
12:54 AM 33.1 °F 30.0 °F 24.1 °F 70% 29.95 in 10.0 mi NNE 3.5 mph - N/A   Clear
1:54 AM 33.1 °F 27.7 °F 23.0 °F 66% 29.95 in 10.0 mi Variable 5.8 mph - N/A   Clear
2:54 AM 32.0 °F 26.4 °F 23.0 °F 69% 29.94 in 10.0 mi NE 5.8 mph - N/A   Clear
3:54 AM 32.0 °F 26.4 °F 21.9 °F 66% 29.94 in 10.0 mi Variable 5.8 mph - N/A   Clear
4:54 AM 30.9 °F 26.2 °F 21.9 °F 69% 29.94 in 10.0 mi Variable 4.6 mph - N/A   Clear
5:54 AM 30.9 °F 25.2 °F 21.9 °F 69% 29.92 in 10.0 mi NE 5.8 mph - N/A   Clear
6:54 AM 30.9 °F 24.3 °F 21.9 °F 69% 29.91 in 10.0 mi Variable 6.9 mph - N/A   Clear
7:54 AM 30.9 °F 23.5 °F 21.0 °F 67% 29.86 in 10.0 mi NE 8.1 mph - N/A   Clear
8:54 AM 30.9 °F 23.5 °F 21.0 °F 67% 29.83 in 10.0 mi NE 8.1 mph 17.3 mph N/A   Clear
9:54 AM 33.1 °F 24.4 °F 21.0 °F 61% 29.80 in 10.0 mi ENE 11.5 mph 16.1 mph N/A   Clear
10:54 AM 34.0 °F 25.0 °F 21.0 °F 59% 29.77 in 10.0 mi ENE 12.7 mph 18.4 mph N/A   Clear
11:54 AM 36.0 °F 29.0 °F 19.9 °F 52% 29.74 in 10.0 mi ENE 9.2 mph - N/A   Mostly Cloudy
12:54 PM 37.0 °F 32.4 °F 19.0 °F 48% 29.73 in 10.0 mi NE 5.8 mph - N/A   Overcast
1:54 PM 37.0 °F 32.4 °F 19.9 °F 50% 29.71 in 10.0 mi NE 5.8 mph 17.3 mph N/A   Overcast
3:16 PM 35.6 °F 27.1 °F 23.0 °F 60% 29.61 in 5.0 mi ENE 12.7 mph 24.2 mph 0.00 in Snow Light Snow
3:27 PM 35.6 °F 27.1 °F 23.0 °F 60% 29.61 in 7.0 mi NE 12.7 mph 23.0 mph 0.00 in Snow Light Snow
3:54 PM 37.0 °F 27.4 °F 24.1 °F 59% 29.60 in 6.0 mi East 17.3 mph 25.3 mph 0.00 in Snow Light Snow
4:54 PM 35.1 °F 26.9 °F 28.0 °F 76% 29.58 in 6.0 mi East 11.5 mph - 0.00 in Snow Light Snow
5:54 PM 35.1 °F 26.4 °F 28.9 °F 78% 29.56 in 8.0 mi East 12.7 mph 23.0 mph 0.00 in Snow Light Snow
6:54 PM 35.1 °F 30.1 °F 28.0 °F 76% 29.54 in 10.0 mi ENE 5.8 mph - N/A   Overcast
7:54 PM 36.0 °F 31.1 °F 28.9 °F 76% 29.54 in 10.0 mi East 5.8 mph - N/A   Overcast
8:54 PM 36.0 °F 29.0 °F 28.9 °F 76% 29.49 in 10.0 mi ENE 9.2 mph - N/A   Overcast
9:54 PM 36.0 °F 32.1 °F 30.0 °F 79% 29.48 in 10.0 mi ENE 4.6 mph - N/A   Overcast
10:13 PM 35.6 °F 31.7 °F 30.2 °F 81% 29.46 in 10.0 mi ENE 4.6 mph - N/A   Overcast
10:54 PM 36.0 °F 31.1 °F 30.0 °F 79% 29.46 in 4.0 mi ENE 5.8 mph - 0.00 in Snow Light Snow
11:19 PM 35.6 °F 32.8 °F 30.2 °F 81% 29.44 in 2.0 mi East 3.5 mph - 0.02 in Snow Light Snow
11:29 PM 33.8 °F 30.8 °F 30.2 °F 87% 29.44 in 1.2 mi ENE 3.5 mph - 0.03 in Snow Light Snow
11:35 PM 33.8 °F 30.8 °F 30.2 °F 87% 29.44 in 0.8 mi East 3.5 mph - 0.04 in Snow Light Snow
11:51 PM 33.8 °F 29.6 °F 32.0 °F 93% 29.43 in 0.5 mi ENE 4.6 mph - 0.10 in Fog , Snow Snow
11:54 PM 33.1 °F 28.7 °F 32.0 °F 96% 29.45 in 0.5 mi ENE 4.6 mph - 0.11 in Fog , Snow Snow
11:57 PM 33.8 °F 29.6 °F 30.2 °F 87% 29.43 in 0.2 mi ENE 4.6 mph - 0.01 in Fog , Snow Heavy Snow